Location: Limerick
(52.6800°N, 8.6400°W)
Time: 04:35:21
(UTC+01:00)

Daily predictions for brighter satellites

Satellite Brightness Start Highest point End
(mag) Time Altitude Azimuth Time Altitude Azimuth Time Altitude Azimuth
ATLAS 3B R/B 3.8 00:17:11 10° NW 00:23:56 39° NNE 00:24:57 37° NE
Cosmos 2360 Rocket 4.4 00:32:02 10° NNW 00:35:58 19° NNE 00:36:28 18° NE
Cosmos 1980 Rocket 3.9 00:31:33 10° NNW 00:34:32 30° N 00:34:32 30° N
CZ-4C R/B 3.8 00:43:03 10° NW 00:48:57 37° NNE 00:49:50 36° NNE
SL-16 R/B 4.0 00:59:35 10° NNW 01:02:34 27° N 01:02:34 27° N
CENTAUR R/B 3.9 01:12:42 26° WNW 01:15:53 39° NNW 01:22:56 10° NE
Cosmos 2322 Rocket 4.1 01:24:38 10° NNW 01:27:08 26° NNW 01:27:08 26° NNW
Cosmos 2082 Rocket 4.1 01:46:07 25° NNE 01:46:07 25° NNE 01:48:20 10° NNE
ATLAS 5 CENTAUR R/B 4.4 01:42:17 10° NW 01:50:16 19° ENE 01:52:17 10° ENE
CZ-2C R/B 4.4 01:57:40 10° NNE 02:00:21 30° NNE 02:00:21 30° NNE
CZ-3A R/B 4.4 02:03:44 67° SSW 02:06:15 78° SE 03:31:43 10° ENE
ATLAS 2AS CENTAUR R/B 4.3 02:11:29 28° E 02:11:29 28° E 02:16:33 10° NE
ATLAS 3B R/B 4.0 02:08:27 10° NW 02:12:09 33° NW 02:12:09 33° NW
Cosmos 2219 Rocket 4.2 02:16:00 10° NNW 02:20:35 24° NE 02:23:21 17° ENE
Cosmos 2360 Rocket 4.0 02:15:43 10° NNW 02:18:12 26° NNW 02:18:12 26° NNW
SL-16 R/B 4.3 02:20:23 21° E 02:22:30 26° NE 02:27:29 10° N
Cosmos 1833 Rocket 4.2 02:37:05 32° N 02:37:05 32° N 02:40:15 10° NNE
CZ-4C R/B 4.0 02:31:47 10° NW 02:34:57 31° NW 02:34:57 31° NW
Cosmos 2333 Rocket 3.8 02:55:22 10° NNW 03:00:29 31° NE 03:05:32 10° ESE
CENTAUR R/B 4.1 03:01:43 10° NW 03:08:21 39° NNE 03:15:42 10° E
NOSS 3-2 (C) 4.4 03:02:59 10° NW 03:09:58 56° NNE 03:17:39 10° ESE
COSMOS 2428 4.1 03:15:19 10° NNW 03:18:14 31° NNW 03:18:14 31° NNW
Cosmos 2237 Rocket 3.6 03:21:03 10° NNW 03:26:15 36° NE 03:31:25 10° ESE
Cosmos 2082 Rocket 3.8 03:27:58 25° NNW 03:27:58 25° NNW 03:32:11 10° NNE
Lacrosse 5 rocket 4.1 03:30:35 16° E 03:30:35 16° E 03:31:47 10° ENE
ATLAS 5 CENTAUR R/B 2.8 03:32:02 51° N 03:32:53 56° NE 03:39:01 10° ESE
NOSS 3-1 (C) 4.0 03:39:09 54° NNW 03:39:12 54° NNW 03:46:06 10° NE
NOSS 3-1 (A) 3.8 03:43:54 59° NNW 03:43:54 59° NNW 03:50:50 10° NE
SL-16 R/B 4.1 03:40:29 10° NNW 03:45:22 28° NE 03:50:14 10° E
Meteor 1-27 Rocket 4.3 03:47:01 52° N 03:47:01 52° N 03:51:24 10° N
Cosmos 2219 4.2 03:46:39 38° ESE 03:46:39 38° ESE 03:51:45 10° NE
ARIANE 5 R/B 3.5 03:44:07 10° NNE 03:48:49 41° E 03:48:49 41° E
ADEOS 4.1 03:44:46 10° NNE 03:49:20 54° ENE 03:49:20 54° ENE
NPP 4.1 03:48:03 10° NNE 03:52:22 58° N 03:52:22 58° N
Cosmos 1238 Rocket 3.9 03:56:54 87° SSE 03:56:59 88° ESE 04:03:50 10° N
ATLAS 2AS CENTAUR R/B 2.9 03:58:55 70° SW 04:00:02 89° SE 04:08:17 10° NE
CZ-2D R/B 2.8 03:58:15 10° NNE 04:03:17 45° E 04:03:52 43° ESE
Cosmos 2227 Rocket 4.5 04:02:08 11° SE 04:05:23 18° E 04:09:04 10° ENE
Cosmos 2219 Rocket 2.3 03:59:42 10° NNW 04:04:50 71° N 04:04:50 71° N
SL-16 R/B 2.4 04:05:29 84° WSW 04:05:31 84° WSW 04:11:50 10° NNW
Cosmos 1833 4.2 04:06:08 78° NE 04:06:08 78° NE 04:11:27 10° NNE
Meteor 2-21 4.4 04:02:55 10° NNW 04:08:29 73° NW 04:08:29 73° NW
NOSS 0 Rocket 3.9 04:07:31 10° NNW 04:13:48 84° NE 04:20:04 10° SE
Cosmos 1821 Rocket 4.0 04:07:27 10° N 04:13:53 85° E 04:15:27 55° SSE
Cosmos 1934 Rocket 4.1 04:10:04 10° N 04:16:25 75° ENE 04:19:01 37° SSE
UNKNOWN OBJECT B 4.2 04:13:43 10° NNE 04:17:07 35° E 04:17:07 35° E
Cosmos 1605 Rocket 4.4 04:12:48 10° N 04:18:53 58° ENE 04:24:59 10° SSE
Meteor 2-21 Rocket 4.2 04:15:53 10° NNW 04:21:57 77° W 04:22:07 76° WSW
Cosmos 1743 4.4 04:19:31 10° N 04:23:00 32° ENE 04:23:58 28° E
NOSS 3-2 (A) 3.8 04:16:11 10° NW 04:23:27 75° SW 04:31:23 10° SE
NOSS 2-3 (E) 4.0 04:29:14 82° SW 04:29:29 89° NW 04:35:42 10° NE
Resurs 1-4 Rocket 2.2 04:24:43 10° NNE 04:30:04 74° ESE 04:30:54 61° SSE
Okean 1 4.0 04:31:59 52° ENE 04:31:59 52° ENE 04:35:32 10° NNE
Cosmos 968 Rocket 3.5 04:37:33 64° SSE 04:38:12 73° ESE 04:43:20 10° NNE
Cosmos 1812 3.5 04:39:14 50° NNE 04:39:14 50° NNE 04:42:13 10° NNE
IRS-1D 3.5 04:37:20 10° NNE 04:42:43 81° WNW 04:43:25 67° SW
Cosmos 2333 Rocket 2.1 04:39:32 10° NW 04:45:16 71° WSW 04:50:55 10° SSE
GEOS 3 Rocket 3.9 04:41:17 10° NE 04:46:14 51° NW 04:46:59 47° WNW
Cosmos 2239 Rocket 4.5 04:41:06 10° NNW 04:47:11 58° W 04:48:02 53° SW
Cosmos 923 Rocket 3.9 04:42:43 10° NNW 04:48:05 77° WSW 04:53:26 10° SSE
Cosmos 2344 4.0 04:46:55 31° SSW 04:50:55 64° SE 05:00:01 10° NE
Spot 4 Rocket 4.2 04:47:27 10° N 04:52:27 51° WNW 04:52:36 51° WNW
ERS-2 2.7 04:52:03 10° NNE 04:54:56 50° N 04:54:56 50° N
Cosmos 1461 2.8 04:56:36 82° W 04:56:45 84° NW 05:01:03 10° NE
Uosat 12 SS-18 rocket 3.9 04:56:47 73° WNW 04:56:54 73° NW 05:01:15 10° NE
NOSS 2-3 (C) 4.2 04:57:03 52° W 04:58:14 67° NW 05:04:32 10° NE
CENTAUR R/B 3.3 04:52:49 10° NW 05:00:17 70° NE 05:08:28 10° ESE
NOSS 3-2 (C) 3.9 04:54:01 10° NW 05:01:13 60° SW 05:09:00 10° SSE
BREEZE-M DEB (TANK) 3.5 05:03:07 60° S 05:03:12 60° S 05:10:03 10° E
Cosmos 1025 Rocket 4.3 05:00:12 12° SSE 05:03:49 40° E 05:07:52 10° NNE
ADEOS Rocket 4.5 04:56:56 10° NNE 05:03:53 42° E 05:10:11 10° SSE
Okean O Rocket 2.3 05:00:53 10° NNE 05:05:13 51° E 05:08:02 20° S
Lacrosse 5 rocket 1.4 05:06:19 64° SW 05:06:59 85° SSE 05:11:28 10° ENE
CZ-4B R/B 4.0 05:03:31 10° NNE 05:08:44 48° E 05:14:00 10° S
IRAS Rocket 4.4 05:04:21 10° N 05:09:43 53° WNW 05:11:03 43° WSW
Cosmos 1536 Rocket 3.9 05:10:19 46° WNW 05:10:19 46° WNW 05:14:21 10° N
Cosmos 2237 Rocket 2.2 05:05:05 10° NW 05:10:37 57° WSW 05:16:07 10° S
Cosmos 1606 Rocket 3.8 05:06:57 10° N 05:11:21 67° ENE 05:15:41 10° SSE
Meteor 2-8 Rocket 4.4 05:11:17 19° S 05:15:50 89° ESE 05:22:01 10° NNE
ATLAS 5 CENTAUR R/B 2.5 05:13:48 20° WNW 05:17:40 48° SW 05:23:45 10° SSE
Cosmos 1726 Rocket 3.7 05:18:03 10° N 05:22:30 74° ENE 05:26:52 10° SSE
Lacrosse 5 3.1 05:20:21 20° S 05:23:05 35° SE 05:27:41 10° ENE
Cosmos 1980 4.0 05:18:53 10° NW 05:24:14 43° WSW 05:29:34 10° S
CZ-2C R/B 3.7 05:22:28 10° S 05:26:56 60° WSW 05:31:34 10° NNW
ADEOS II 3.5 05:22:42 10° NNE 05:27:37 38° E 05:32:30 10° SSE
Cosmos 1777 Rocket 3.9 05:25:21 31° SSW 05:27:54 79° WNW 05:33:13 10° NNE
ARIANE 5 R/B 3.2 05:23:25 10° N 05:28:05 36° WNW 05:29:09 32° W
Cosmos 292 Rocket 3.7 05:23:34 10° NNW 05:28:27 78° WSW 05:33:20 10° SSE
SL-16 R/B 2.1 05:24:25 10° NNW 05:30:09 81° WSW 05:35:50 10° SSE
NOSS 3-4 (A) 3.9 05:25:52 20° SSW 05:30:21 62° SE 05:36:54 10° NE
NOSS 3-4 (C) 3.9 05:25:56 20° SSW 05:30:27 62° SE 05:37:00 10° NE
Cosmos 2219 3.5 05:28:35 33° WSW 05:30:40 48° NW 05:36:09 10° NNE
Cosmos 1666 2.7 05:27:46 10° N 05:31:41 85° ENE 05:35:33 10° SSE
Meteor 2-9 Rocket 4.2 05:27:52 10° NNW 05:33:29 89° ENE 05:39:14 10° SSE
Meteor 1-13 Rocket 4.2 05:30:22 15° SSW 05:35:19 81° WNW 05:41:04 10° NNE
Okean 1-7 Rocket 3.5 05:34:04 31° SW 05:36:00 62° WNW 05:40:24 10° N
MOZ.5/SAFIR/RUBIN 5/SL-8 4.2 05:35:32 27° SW 05:37:30 40° W 05:42:00 10° NNW
Cosmos 1727 Rocket 3.9 05:31:38 11° SSW 05:37:43 77° W 05:44:05 10° N
Cosmos 2173 Rocket 3.9 05:32:22 10° N 05:38:31 86° E 05:44:39 10° S
Cosmos 1892 Rocket 4.2 05:35:12 10° S 05:39:36 57° E 05:44:01 10° NNE
Cosmos 220 Rocket 4.2 05:36:45 18° SSW 05:39:49 67° ESE 05:44:02 10° NNE
Cosmos 2112 Rocket 4.3 05:36:17 10° NW 05:41:19 44° WSW 05:46:18 10° S
PSLV R/B 4.5 05:37:05 10° NNE 05:41:22 50° E 05:45:33 10° S
CZ-2D R/B 2.8 05:38:35 10° N 05:43:17 35° WNW 05:45:11 26° W
Cosmos 1680 Rocket 4.0 05:41:09 10° NW 05:45:58 36° WSW 05:50:43 10° SSW
CZ-2D R/B 3.9 05:42:17 10° N 05:46:06 40° WNW 05:47:15 32° WSW
Cosmos 1459 Rocket 4.0 05:40:40 10° NNW 05:47:05 83° W 05:53:25 10° S
Tiangong 1 3.5 05:47:54 11° S 05:48:21 11° SSE 05:49:24 10° SSE
Cosmos 2227 Rocket 2.2 05:44:01 16° SSW 05:48:39 87° ESE 05:54:22 10° NNE
Cosmos 2219 Rocket 3.8 05:44:33 10° NW 05:46:21 17° WNW 05:46:21 17° WNW
SL-16 R/B 3.9 05:50:35 18° W 05:50:35 18° W 05:54:19 10° NW
UNKNOWN OBJECT B 3.8 05:48:27 10° N 05:51:52 28° WNW 05:52:36 26° W
ATLAS 2AS CENTAUR R/B 3.7 05:46:22 19° W 05:51:59 46° NNW 05:59:48 10° NE
Cosmos 2228 3.1 05:50:32 10° N 05:54:59 86° E 05:59:22 10° S
Cosmos 2297 Rocket 2.3 05:52:25 10° SSW 05:58:03 78° ESE 06:03:45 10° NNE
Cosmos 1743 3.6 05:55:32 10° NNW 05:58:46 26° W 05:59:01 26° W
ASTRO F (AKARI) 4.5 05:58:23 10° S 06:01:28 46° W 06:04:40 10° NNW
RESURS DK-1 2.5 05:58:05 13° SSW 06:01:42 76° ESE 06:05:52 10° NE
CZ-4B DEB 4.2 06:01:31 10° NNE 06:07:00 71° WNW 06:12:28 10° SSW
Okean-O 2.9 06:03:42 10° NNE 06:08:11 72° ESE 06:12:36 10° S
IRS-1C Rocket 4.3 06:03:06 10° N 06:08:15 53° WNW 06:13:23 10° SW
Cosmos 1346 Rocket 2.7 06:05:14 10° SSW 06:09:13 74° WNW 06:13:15 10° N
Resurs 1-4 Rocket 3.4 06:05:17 10° N 06:09:26 24° NW 06:11:59 17° W
Cosmos 2298 Rocket 4.4 06:06:56 10° SSW 06:12:11 66° ESE 06:17:29 10° NNE
Cosmos 2058 Rocket 3.2 06:08:35 10° NNW 06:12:48 48° W 06:17:00 10° SSW
Cosmos 1943 4.2 06:08:21 10° NNW 06:13:50 50° NE 06:19:18 10° SE
Cosmos 2084 Rocket 3.7 06:10:16 10° NW 06:14:04 59° NE 06:17:58 10° ESE
Cosmos 2084 3.5 06:12:34 20° WSW 06:14:58 52° NW 06:18:45 10° NE
Cosmos 1603 3.7 06:11:38 10° NNW 06:17:26 87° WSW 06:23:09 10° SSE
PAYLOAD B 4.4 06:12:26 10° N 06:17:48 54° WNW 06:23:08 10° SW
Meteor 1-15 Rocket 4.3 06:12:39 10° NNW 06:18:02 51° W 06:23:25 10° S
Thor Agena Rocket 4.1 06:16:04 10° SSW 06:20:59 38° W 06:25:55 10° NNW
Cosmos 2150 Rocket 4.2 06:21:37 10° SSW 06:26:45 75° ESE 06:31:56 10° NNE
Cosmos 2333 Rocket 3.7 06:25:42 10° WNW 06:28:30 14° W 06:31:18 10° SW
Cosmos 2082 3.8 06:23:09 10° SW 06:28:41 58° NW 06:34:15 10° NNE
ERS-2 4.4 06:28:19 10° NW 06:28:49 10° NW 06:29:20 10° WNW
Feng Yun 1-1 Rocket 4.3 06:26:23 10° NNE 06:32:01 86° WNW 06:37:46 10° SSW
COSMO-SKYMED 1 2.8 06:28:00 10° SSE 06:32:20 79° ENE 06:36:42 10° NNW
Cosmos 2098 Rocket 3.0 06:29:12 10° NNW 06:32:38 47° W 06:36:51 10° S
Aureole 2 Rocket 3.3 06:30:47 10° NW 06:33:57 28° WSW 06:36:51 10° SSW
CZ-4B R/B 3.9 06:31:55 10° N 06:35:46 33° WNW 06:39:46 10° SW
Cosmos 1461 4.4 06:33:05 11° W 06:36:29 24° NNW 06:39:59 10° NNE
SeaSat 1 2.7 06:31:38 10° SE 06:36:33 76° NE 06:41:31 10° NNW
Cosmos 2061 Rocket 4.4 06:32:13 10° NNW 06:38:01 40° W 06:43:50 10° SSW
USA 129 2.5 06:36:49 10° SSW 06:38:22 21° W 06:39:48 10° NW
Cosmos 1174 3.6 06:37:54 10° NW 06:40:43 37° WSW 06:43:39 10° SSE
Cosmos 2233 Rocket 4.2 06:34:38 10° N 06:41:00 82° E 06:47:15 10° SSE
Okean O Rocket 2.8 06:37:45 10° N 06:41:21 25° WNW 06:44:54 10° WSW
Meteor 2-15 Rocket 4.5 06:35:21 10° S 06:41:26 86° W 06:47:33 10° N
Cosmos 1025 Rocket 4.0 06:37:52 10° SW 06:41:34 27° WNW 06:45:17 10° N
Cosmos 1802 Rocket 4.3 06:36:10 10° NNW 06:41:54 41° W 06:47:35 10° SSW
Meteor 1-31 Rocket 2.8 06:39:01 10° NNE 06:42:56 85° WNW 06:46:52 10° SSW
MOS 1 Rocket 3.3 06:39:58 10° NNE 06:44:41 81° WNW 06:49:39 10° SSW
Lacrosse 5 rocket 2.1 06:42:08 10° W 06:46:36 50° N 06:50:50 10° ENE
COBE Rocket 3.8 06:43:42 10° N 06:48:34 76° WNW 06:53:17 10° SSW
COS B Rocket 4.1 06:47:19 10° WSW 06:48:40 14° WNW 06:50:04 10° NW
CZ-4B R/B 3.9 06:44:23 10° N 06:49:12 35° WNW 06:54:04 10° SW
ADEOS Rocket 3.6 06:42:24 10° N 06:49:34 52° WNW 06:56:04 10° SW
CENTAUR R/B 3.4 06:43:42 10° NW 06:50:56 46° WSW 06:58:40 10° S
Cosmos 1626 Rocket 3.5 06:47:40 10° SSW 06:52:03 75° WNW 06:56:25 10° N
Cosmos 2237 Rocket 3.9 06:52:35 10° W 06:53:27 10° W 06:54:19 10° WSW
Cosmos 1725 Rocket 4.1 06:48:47 10° NNW 06:54:56 56° W 07:01:01 10° SSW
Okean 2 4.3 06:53:57 10° SW 06:57:35 29° WNW 07:01:14 10° N
Cosmos 1898 Rocket 3.6 06:53:07 10° SW 06:58:24 63° WNW 07:03:41 10° NNE
Cosmos 1953 4.3 06:56:33 10° N 07:00:16 35° ENE 07:03:58 10° SE
DNEPR-1 R/B 4.0 06:55:58 10° NW 07:01:26 82° NE 07:05:58 10° SE
